COSMOS 1275 DEB, 13017

Orbit data source: Space-Track

COSMOS 1275 DEB, 13017 is space debris in LEO originally from a launch on Thu, 04 Jun 1981 UTC launched from the Plesetsk Missile And Space Complex (PKMTR). Debris objects in space refer to the collection of defunct objects orbiting the Earth. Examples of debris include non-operational satellites, rocket bodies, and fragments generated from explosions, collisions, or faulty payload assembly.

Loading next visibility...
Identifier
13017, 1981-053EP
Orbit
LEO
Country
Flag of CISCIS
Related business
Manufacturer
Unknown
Mission
Spacecraft
Bus & Motor
Unknown
Mass
Unknown
Launch date (UTC)
1981-06-04 (45 years ago)
Launch vehicle
Unknown
Launch site
Plesetsk Missile And Space Complex (PKMTR)
Object type
Payload
Rocket body
Debris
Shape & HBR
Unknown shape, 0.1 m
Radar Cross Section
Small (<0.1 m²)

Expand to show TLE details & history
Last TLE update: 17 hours ago

TLE from 17 hours ago
0 COSMOS 1275 DEB
1 13017U 81053EP  26048.40749944  .00001043  00000-0  68792-3 0  9993
2 13017  82.9298  27.2396 0029083 202.8044 310.2308 14.00660813240173
Epoch: 2026-02-17T09:46Z
TLE epoch observation values (Epoch: 2026-02-17T09:46:47.951Z)
Latitude
27.03384°
Longitude
-90.45758°
Altitude
881.209 km
Speed
7.421 km/s
True Right ascension
13h 34m 31s
True Declination
26° 53' 50"
Sunlit
Object was in full shadow at epoch
Visualization orbit readout
Latitude
Unknown
Longitude
Unknown
Altitude
Unknown
Speed
Unknown
Apparent Right ascension
Unknown
Apparent Declination
Unknown
Sunlit
N/A
Visualization observer readout
Local Sidereal Time
05:50:15
Azimuth
Unknown
Elevation
Unknown
Doppler factor
Unknown
Orbital elements
Apogee altitude
909.755 km
Perigee altitude
867.488 km
Semi-major axis
7,266.759 km
Eccentricity
0.00291
Inclination
82.9298°
RAAN
27.2396°
Arg. of periapsis
202.8044°
True anomaly
309.97577°
Mean anomaly
310.2308°
Eccentric anomaly
310.10334°
Mean motion
3.50374 °/min
Orbital period
102.75 mins
BSTAR
0.00068792
Loading maneuver chart data...
Computing Atmospheric mass density...
Loading historical data...
Loading historical data...
Loading historical data...
Loading historical data...
Loading historical data...
Loading historical data...
Loading historical data...

Documentation

Showing up to 5 results
|